QPF
0.00 0.00 0.00 0.00 0.00 0.00 0.00 0.00 0.00 0.00 0.00 0.00 0.00 0.00 0.00 0.00 0.00 0.00 0.00 0.00 0.00 0.00 0.00 0.00 0.00 0.00 0.00 0.00 0.00 0.00 0.00 0.00 0.00 0.00 0.00 0.00 0.00 0.00 0.00 0.00 0.00 0.00 0.00 0.00
0.00 0.00 0.00 0.00 0.00 0.00 0.00 0.00 0.00 0.00 0.00 0.00 0.00 0.00 0.00 0.00 0.00 0.00 0.00 0.00 0.00 0.00 0.00 0.00 0.00 0.00 0.00 0.00 0.00 0.00 0.00 0.00 0.00 0.00 0.00 0.00 0.00 0.00 0.00 0.00 0.00 0.00 0.00 0.00
0.00 0.00 0.00 0.00 0.00 0.00 0.00 0.00 0.00 0.00 0.00 0.00 0.00 0.00 0.00 0.00 0.00 0.00 0.00 0.00 0.00 0.00 0.00 0.00 0.00 0.00 0.00 0.00 0.00 0.00 0.00 0.00 0.00 0.00 0.00 0.00 0.00 0.00 0.00 0.00 0.00 0.00 0.00 0.00
0.00 0.00 0.00 0.00 0.00 0.00 0.00 0.00 0.00 0.00 0.00 0.00 0.00 0.00 0.00 0.00 0.00 0.00 0.00 0.00 0.00 0.00 0.00 0.00 0.00 0.00 0.00 0.00 0.00 0.00 0.00 0.00 0.00 0.00 0.00 0.00 0.00 0.00 0.00 0.00 0.00 0.00 0.00 0.00
0.00 0.00 0.00 0.00 0.00 0.00 0.00 0.00 0.00 0.00 0.00 0.00 0.00 0.00 0.00 0.00 0.00 0.00 0.00 0.00 0.00 0.00 0.00 0.00 0.00 0.00 0.00 0.00 0.00 0.00 0.00 0.00 0.00 0.00 0.00 0.00 0.00 0.00 0.00 0.00 0.00 0.00 0.00 0.00
0.00 0.00 0.00 0.00 0.00 0.00 0.00 0.00 0.00 0.00 0.00 0.00 0.00 0.00 0.00 0.00 0.00 0.00 0.00 0.00 0.00 0.00 0.00 0.00 0.00 0.00 0.00 0.00 0.00 0.00 0.00 0.00 0.00 0.00 0.00 0.00 0.00 0.00 0.00 0.00 0.00 0.00 0.00 0.00
0.00 0.00 0.00 0.00 0.00 0.00 0.00 0.00 0.00 0.00 0.00 0.00 0.00 0.00 0.00 0.00 0.00 0.00 0.00 0.00 0.00 0.00 0.00 0.00 0.00 0.00 0.00 0.00 0.00 0.00 0.00 0.00 0.00 0.00 0.00 0.00 0.00 0.00 0.00 0.00 0.00 0.00 0.00 0.00
0.00 0.00 0.00 0.00 0.00 0.00 0.00 0.00 0.00 0.00 0.00 0.00 0.00 0.00 0.00 0.00 0.00 0.00 0.00 0.00 0.00 0.00 0.00 0.00 0.00 0.00 0.00 0.00 0.00 0.00 0.00 0.00 0.00 0.00 0.00 0.00 0.00 0.00 0.00 0.00 0.00 0.00 0.00 0.00
0.00 0.00 0.00 0.00 0.00 0.00 0.00 0.00 0.00 0.00 0.00 0.00 0.00 0.00 0.00 0.00 0.00 0.00 0.00 0.00 0.00 0.00 0.00 0.00 0.00 0.00 0.00 0.00 0.00 0.00 0.00 0.00 0.00 0.00 0.00 0.00 0.00 0.00 0.00 0.00 0.00 0.00 0.00 0.00
0.00 0.00 0.00 0.00 0.00 0.00 0.00 0.00 0.00 0.00 0.00 0.00 0.00 0.00 0.00 0.00 0.00 0.00 0.00 0.00 0.00 0.00 0.00 0.00 0.00 0.00 0.00 0.00 0.00 0.00 0.00 0.00 0.00 0.00 0.00 0.00 0.00 0.00 0.00 0.00 0.00 0.00 0.00 0.00
0.00 0.00 0.00 0.00 0.00 0.00 0.00 0.00 0.00 0.00 0.00 0.00 0.00 0.00 0.00 0.00 0.00 0.00 0.00 0.00 0.00 0.00 0.00 0.00 0.00 0.00 0.00 0.00 0.00 0.00 0.00 0.00 0.00 0.00 0.00 0.00 0.00 0.00 0.00 0.00 0.00 0.00 0.01 0.01
0.00 0.00 0.00 0.00 0.00 0.00 0.00 0.00 0.00 0.00 0.00 0.00 0.00 0.00 0.00 0.00 0.00 0.00 0.00 0.00 0.00 0.00 0.00 0.00 0.00 0.00 0.00 0.00 0.00 0.00 0.00 0.00 0.00 0.00 0.00 0.00 0.00 0.00 0.00 0.00 0.00 0.00 0.01 0.01
0.00 0.00 0.00 0.00 0.00 0.00 0.00 0.00 0.00 0.00 0.00 0.00 0.00 0.00 0.00 0.00 0.00 0.00 0.00 0.00 0.00 0.00 0.00 0.00 0.00 0.00 0.00 0.00 0.00 0.00 0.00 0.00 0.00 0.00 0.00 0.00 0.00 0.00 0.00 0.00 0.00 0.00 0.00 0.01
0.00 0.00 0.00 0.00 0.00 0.00 0.00 0.00 0.00 0.00 0.00 0.00 0.00 0.00 0.00 0.00 0.00 0.00 0.00 0.00 0.00 0.00 0.00 0.00 0.00 0.00 0.00 0.00 0.00 0.00 0.00 0.00 0.00 0.00 0.00 0.00 0.00 0.00 0.00 0.00 0.00 0.00 0.00 0.00
0.00 0.00 0.00 0.00 0.00 0.00 0.00 0.00 0.00 0.00 0.00 0.00 0.00 0.00 0.00 0.00 0.00 0.00 0.00 0.00 0.00 0.00 0.00 0.00 0.00 0.00 0.00 0.00 0.00 0.00 0.00 0.00 0.00 0.00 0.00 0.00 0.00 0.00 0.00 0.00 0.00 0.00 0.00 0.00
0.00 0.00 0.00 0.00 0.00 0.00 0.00 0.00 0.00 0.00 0.00 0.00 0.00 0.00 0.00 0.00 0.00 0.00 0.00 0.00 0.00 0.00 0.00 0.00 0.00 0.00 0.00 0.00 0.00 0.00 0.00 0.00 0.00 0.00 0.00 0.00 0.00 0.00 0.00 0.00 0.01 0.01 0.00 0.00
0.00 0.00 0.00 0.00 0.00 0.00 0.00 0.00 0.00 0.00 0.00 0.00 0.00 0.00 0.00 0.00 0.00 0.00 0.00 0.00 0.00 0.00 0.00 0.00 0.00 0.00 0.00 0.00 0.00 0.00 0.00 0.00 0.00 0.00 0.00 0.00 0.00 0.00 0.00 0.01 0.01 0.01 0.00 0.00
0.00 0.00 0.00 0.00 0.00 0.00 0.00 0.00 0.00 0.00 0.00 0.00 0.00 0.00 0.00 0.00 0.00 0.00 0.00 0.00 0.00 0.00 0.00 0.00 0.00 0.00 0.00 0.00 0.00 0.00 0.00 0.00 0.00 0.00 0.00 0.00 0.00 0.01 0.01 0.01 0.01 0.01 0.01 0.01
0.00 0.00 0.00 0.00 0.00 0.00 0.00 0.00 0.00 0.00 0.00 0.00 0.00 0.00 0.00 0.00 0.00 0.00 0.00 0.00 0.00 0.00 0.00 0.00 0.00 0.00 0.00 0.00 0.00 0.00 0.00 0.00 0.00 0.00 0.00 0.00 0.00 0.00 0.00 0.01 0.01 0.01 0.01 0.01
0.00 0.00 0.00 0.00 0.00 0.00 0.00 0.00 0.00 0.00 0.00 0.00 0.00 0.00 0.00 0.00 0.00 0.00 0.00 0.00 0.00 0.00 0.00 0.00 0.00 0.00 0.00 0.00 0.00 0.00 0.00 0.00 0.00 0.00 0.00 0.00 0.00 0.00 0.00 0.00 0.01 0.00 0.00 0.00
0.00 0.00 0.00 0.00 0.00 0.00 0.00 0.00 0.00 0.00 0.00 0.00 0.00 0.00 0.00 0.00 0.00 0.00 0.00 0.00 0.00 0.00 0.00 0.00 0.00 0.00 0.00 0.00 0.00 0.00 0.00 0.00 0.00 0.00 0.00 0.00 0.00 0.00 0.00 0.00 0.00 0.00 0.00 0.00
0.00 0.00 0.00 0.00 0.00 0.00 0.00 0.00 0.00 0.00 0.00 0.00 0.00 0.00 0.00 0.00 0.00 0.00 0.00 0.00 0.00 0.00 0.00 0.00 0.00 0.00 0.00 0.00 0.00 0.00 0.00 0.00 0.00 0.00 0.00 0.00 0.00 0.00 0.00 0.00 0.00 0.01 0.01 0.01
0.00 0.00 0.00 0.00 0.00 0.00 0.00 0.00 0.00 0.00 0.00 0.00 0.00 0.00 0.00 0.00 0.00 0.00 0.00 0.00 0.00 0.00 0.00 0.00 0.00 0.00 0.00 0.00 0.00 0.00 0.00 0.00 0.00 0.00 0.00 0.00 0.00 0.00 0.01 0.01 0.01 0.01 0.01 0.01
0.00 0.00 0.00 0.00 0.00 0.00 0.00 0.00 0.00 0.00 0.00 0.00 0.00 0.00 0.00 0.00 0.00 0.00 0.00 0.00 0.00 0.00 0.00 0.00 0.00 0.00 0.00 0.00 0.00 0.00 0.00 0.00 0.00 0.00 0.00 0.00 0.00 0.01 0.01 0.01 0.01 0.01 0.01 0.01
0.00 0.00 0.00 0.00 0.00 0.00 0.00 0.00 0.00 0.00 0.00 0.00 0.00 0.00 0.00 0.00 0.00 0.00 0.00 0.00 0.00 0.00 0.00 0.00 0.00 0.00 0.00 0.00 0.00 0.00 0.00 0.00 0.00 0.00 0.01 0.01 0.00 0.00 0.00 0.01 0.01 0.01 0.01 0.01
0.00 0.00 0.00 0.00 0.00 0.00 0.00 0.00 0.00 0.00 0.00 0.00 0.00 0.00 0.00 0.00 0.00 0.00 0.00 0.00 0.00 0.00 0.00 0.00 0.00 0.00 0.00 0.00 0.00 0.00 0.00 0.00 0.00 0.00 0.00 0.00 0.00 0.01 0.01 0.01 0.01 0.01 0.01 0.00
0.00 0.00 0.00 0.00 0.00 0.00 0.00 0.00 0.00 0.00 0.00 0.00 0.00 0.00 0.00 0.00 0.00 0.00 0.00 0.00 0.00 0.00 0.00 0.00 0.00 0.00 0.00 0.00 0.00 0.00 0.00 0.00 0.00 0.00 0.01 0.01 0.01 0.01 0.01 0.01 0.01 0.01 0.01 0.00
MSLP
1009.67 1010.37 1011.07 1011.72 1012.25 1012.62 1012.79 1012.74 1012.49 1012.09 1011.62 1011.17 1010.82 1010.65 1010.71 1011.03 1011.58 1012.33 1013.20 1014.11 1015.00 1015.81 1016.48 1017.02 1017.41 1017.69 1017.88 1018.00 1018.08 1018.12 1018.13 1018.11 1018.03 1017.90 1017.70 1017.44 1017.12 1016.75 1016.33 1015.88 1015.41 1014.90 1014.35 1013.77
1009.53 1010.12 1010.69 1011.21 1011.63 1011.92 1012.04 1012.00 1011.81 1011.51 1011.17 1010.85 1010.63 1010.59 1010.74 1011.12 1011.70 1012.45 1013.31 1014.20 1015.07 1015.86 1016.54 1017.09 1017.50 1017.81 1018.02 1018.16 1018.25 1018.29 1018.30 1018.27 1018.18 1018.03 1017.82 1017.54 1017.19 1016.79 1016.35 1015.87 1015.36 1014.81 1014.24 1013.63
1009.48 1009.92 1010.34 1010.72 1011.03 1011.23 1011.33 1011.31 1011.20 1011.02 1010.82 1010.65 1010.59 1010.66 1010.91 1011.35 1011.96 1012.70 1013.53 1014.39 1015.23 1015.99 1016.65 1017.19 1017.62 1017.93 1018.16 1018.31 1018.41 1018.46 1018.46 1018.42 1018.31 1018.15 1017.91 1017.61 1017.24 1016.82 1016.34 1015.83 1015.28 1014.71 1014.10 1013.46
1009.48 1009.76 1010.02 1010.25 1010.44 1010.58 1010.67 1010.69 1010.67 1010.62 1010.58 1010.58 1010.67 1010.88 1011.23 1011.72 1012.34 1013.08 1013.87 1014.68 1015.47 1016.19 1016.82 1017.35 1017.77 1018.09 1018.32 1018.48 1018.57 1018.61 1018.60 1018.54 1018.41 1018.22 1017.96 1017.64 1017.25 1016.80 1016.31 1015.77 1015.19 1014.59 1013.95 1013.28
1009.49 1009.61 1009.72 1009.81 1009.90 1009.99 1010.07 1010.15 1010.23 1010.33 1010.45 1010.62 1010.86 1011.20 1011.64 1012.18 1012.82 1013.54 1014.29 1015.05 1015.79 1016.46 1017.05 1017.55 1017.96 1018.26 1018.49 1018.63 1018.71 1018.73 1018.70 1018.61 1018.45 1018.24 1017.95 1017.61 1017.20 1016.74 1016.23 1015.67 1015.08 1014.45 1013.79 1013.09
1009.49 1009.47 1009.43 1009.42 1009.43 1009.49 1009.60 1009.74 1009.93 1010.16 1010.44 1010.76 1011.14 1011.59 1012.11 1012.69 1013.34 1014.03 1014.74 1015.45 1016.12 1016.75 1017.30 1017.77 1018.14 1018.43 1018.64 1018.76 1018.81 1018.80 1018.73 1018.60 1018.41 1018.17 1017.86 1017.50 1017.08 1016.61 1016.09 1015.53 1014.93 1014.29 1013.60 1012.87
1009.46 1009.33 1009.20 1009.12 1009.09 1009.15 1009.28 1009.50 1009.79 1010.14 1010.54 1010.99 1011.48 1012.01 1012.58 1013.19 1013.83 1014.49 1015.15 1015.81 1016.43 1017.01 1017.52 1017.95 1018.30 1018.57 1018.74 1018.84 1018.86 1018.81 1018.69 1018.52 1018.29 1018.01 1017.68 1017.29 1016.87 1016.40 1015.88 1015.32 1014.72 1014.07 1013.37 1012.61
1009.42 1009.23 1009.07 1008.95 1008.93 1009.00 1009.19 1009.47 1009.84 1010.28 1010.77 1011.30 1011.86 1012.44 1013.03 1013.63 1014.25 1014.87 1015.49 1016.09 1016.67 1017.20 1017.68 1018.08 1018.41 1018.65 1018.80 1018.86 1018.84 1018.74 1018.58 1018.36 1018.09 1017.76 1017.40 1017.01 1016.57 1016.10 1015.59 1015.03 1014.43 1013.78 1013.06 1012.29
1009.39 1009.21 1009.06 1008.97 1008.98 1009.11 1009.34 1009.68 1010.10 1010.59 1011.13 1011.69 1012.27 1012.85 1013.43 1014.00 1014.58 1015.16 1015.73 1016.29 1016.82 1017.32 1017.77 1018.15 1018.45 1018.67 1018.79 1018.82 1018.76 1018.62 1018.41 1018.14 1017.82 1017.46 1017.06 1016.64 1016.19 1015.72 1015.21 1014.65 1014.05 1013.39 1012.67 1011.89
1009.41 1009.29 1009.21 1009.20 1009.27 1009.45 1009.73 1010.11 1010.56 1011.06 1011.60 1012.15 1012.70 1013.24 1013.77 1014.30 1014.83 1015.36 1015.88 1016.40 1016.90 1017.37 1017.80 1018.16 1018.44 1018.64 1018.73 1018.73 1018.64 1018.45 1018.19 1017.87 1017.51 1017.10 1016.68 1016.23 1015.76 1015.27 1014.75 1014.19 1013.59 1012.93 1012.20 1011.42
1009.49 1009.49 1009.52 1009.61 1009.77 1010.01 1010.34 1010.73 1011.17 1011.65 1012.15 1012.64 1013.13 1013.62 1014.09 1014.56 1015.03 1015.50 1015.98 1016.46 1016.94 1017.38 1017.79 1018.13 1018.39 1018.57 1018.64 1018.61 1018.47 1018.25 1017.95 1017.59 1017.17 1016.73 1016.27 1015.78 1015.29 1014.77 1014.24 1013.67 1013.06 1012.39 1011.67 1010.89
1009.66 1009.79 1009.96 1010.16 1010.41 1010.72 1011.07 1011.46 1011.88 1012.30 1012.73 1013.16 1013.57 1013.98 1014.38 1014.79 1015.20 1015.64 1016.08 1016.53 1016.97 1017.39 1017.77 1018.08 1018.32 1018.47 1018.51 1018.45 1018.28 1018.02 1017.68 1017.28 1016.83 1016.35 1015.85 1015.33 1014.81 1014.27 1013.71 1013.12 1012.50 1011.84 1011.12 1010.36
1009.89 1010.16 1010.46 1010.77 1011.11 1011.46 1011.83 1012.20 1012.58 1012.94 1013.30 1013.65 1013.98 1014.32 1014.66 1015.02 1015.40 1015.79 1016.20 1016.62 1017.03 1017.41 1017.76 1018.03 1018.23 1018.34 1018.34 1018.24 1018.04 1017.75 1017.38 1016.95 1016.48 1015.97 1015.44 1014.89 1014.34 1013.77 1013.19 1012.59 1011.96 1011.29 1010.59 1009.86
1010.15 1010.55 1010.96 1011.36 1011.76 1012.15 1012.52 1012.87 1013.20 1013.50 1013.79 1014.08 1014.35 1014.64 1014.94 1015.27 1015.61 1015.98 1016.36 1016.75 1017.12 1017.46 1017.75 1017.97 1018.12 1018.17 1018.12 1017.97 1017.74 1017.42 1017.03 1016.58 1016.09 1015.57 1015.03 1014.47 1013.89 1013.31 1012.71 1012.09 1011.46 1010.80 1010.12 1009.42
1010.42 1010.91 1011.39 1011.86 1012.30 1012.70 1013.06 1013.38 1013.67 1013.93 1014.17 1014.41 1014.66 1014.92 1015.21 1015.52 1015.85 1016.20 1016.56 1016.91 1017.23 1017.51 1017.73 1017.88 1017.95 1017.93 1017.82 1017.63 1017.36 1017.01 1016.61 1016.16 1015.67 1015.16 1014.61 1014.05 1013.47 1012.88 1012.28 1011.66 1011.02 1010.38 1009.73 1009.07
1010.65 1011.19 1011.72 1012.21 1012.67 1013.06 1013.40 1013.70 1013.95 1014.18 1014.41 1014.63 1014.87 1015.14 1015.43 1015.75 1016.09 1016.43 1016.76 1017.06 1017.32 1017.53 1017.66 1017.72 1017.70 1017.61 1017.43 1017.19 1016.88 1016.53 1016.13 1015.69 1015.21 1014.71 1014.19 1013.65 1013.08 1012.49 1011.89 1011.28 1010.66 1010.03 1009.41 1008.79
1010.82 1011.37 1011.91 1012.40 1012.84 1013.23 1013.55 1013.82 1014.06 1014.28 1014.50 1014.73 1015.00 1015.29 1015.60 1015.94 1016.28 1016.61 1016.91 1017.17 1017.36 1017.48 1017.52 1017.49 1017.38 1017.20 1016.96 1016.67 1016.33 1015.97 1015.58 1015.16 1014.72 1014.25 1013.76 1013.25 1012.71 1012.14 1011.56 1010.96 1010.35 1009.75 1009.15 1008.56
1010.92 1011.46 1011.97 1012.44 1012.86 1013.22 1013.52 1013.78 1014.01 1014.24 1014.47 1014.74 1015.03 1015.36 1015.70 1016.06 1016.41 1016.73 1016.99 1017.19 1017.31 1017.35 1017.30 1017.17 1016.97 1016.71 1016.41 1016.08 1015.73 1015.37 1015.00 1014.61 1014.21 1013.79 1013.34 1012.86 1012.35 1011.82 1011.25 1010.67 1010.09 1009.50 1008.92 1008.36
1010.96 1011.46 1011.94 1012.38 1012.76 1013.09 1013.37 1013.63 1013.86 1014.10 1014.37 1014.66 1014.99 1015.35 1015.72 1016.10 1016.44 1016.74 1016.97 1017.11 1017.16 1017.11 1016.98 1016.77 1016.49 1016.18 1015.84 1015.48 1015.13 1014.78 1014.43 1014.08 1013.72 1013.34 1012.93 1012.49 1012.02 1011.51 1010.97 1010.41 1009.84 1009.27 1008.71 1008.16
1010.97 1011.42 1011.86 1012.26 1012.61 1012.92 1013.19 1013.44 1013.69 1013.95 1014.23 1014.56 1014.91 1015.29 1015.68 1016.05 1016.38 1016.65 1016.84 1016.93 1016.91 1016.80 1016.60 1016.32 1016.00 1015.64 1015.28 1014.92 1014.57 1014.23 1013.91 1013.59 1013.27 1012.92 1012.55 1012.14 1011.69 1011.20 1010.68 1010.14 1009.59 1009.03 1008.48 1007.94
1010.97 1011.39 1011.79 1012.16 1012.49 1012.78 1013.04 1013.29 1013.54 1013.82 1014.12 1014.46 1014.83 1015.21 1015.59 1015.95 1016.25 1016.49 1016.63 1016.66 1016.59 1016.43 1016.18 1015.87 1015.51 1015.14 1014.77 1014.41 1014.07 1013.76 1013.46 1013.16 1012.86 1012.54 1012.19 1011.79 1011.36 1010.88 1010.38 1009.85 1009.31 1008.76 1008.22 1007.68
1011.01 1011.41 1011.78 1012.13 1012.44 1012.72 1012.98 1013.23 1013.49 1013.77 1014.08 1014.42 1014.78 1015.14 1015.50 1015.82 1016.08 1016.27 1016.36 1016.35 1016.24 1016.04 1015.76 1015.43 1015.07 1014.69 1014.33 1013.98 1013.66 1013.36 1013.07 1012.79 1012.49 1012.18 1011.83 1011.44 1011.01 1010.54 1010.04 1009.52 1008.99 1008.46 1007.93 1007.40
1011.12 1011.50 1011.87 1012.20 1012.51 1012.78 1013.04 1013.30 1013.56 1013.84 1014.14 1014.46 1014.79 1015.12 1015.43 1015.70 1015.91 1016.04 1016.08 1016.03 1015.88 1015.65 1015.36 1015.03 1014.67 1014.30 1013.95 1013.61 1013.30 1013.00 1012.72 1012.43 1012.13 1011.80 1011.44 1011.05 1010.61 1010.15 1009.65 1009.15 1008.63 1008.12 1007.60 1007.08
1011.33 1011.71 1012.07 1012.40 1012.71 1012.99 1013.25 1013.51 1013.77 1014.03 1014.31 1014.60 1014.89 1015.17 1015.42 1015.63 1015.77 1015.84 1015.83 1015.73 1015.55 1015.30 1014.99 1014.66 1014.30 1013.95 1013.60 1013.27 1012.95 1012.65 1012.36 1012.05 1011.73 1011.39 1011.01 1010.60 1010.16 1009.69 1009.21 1008.72 1008.22 1007.73 1007.24 1006.74
1011.66 1012.04 1012.41 1012.74 1013.05 1013.34 1013.60 1013.86 1014.11 1014.36 1014.61 1014.85 1015.09 1015.31 1015.49 1015.62 1015.69 1015.69 1015.62 1015.47 1015.25 1014.97 1014.66 1014.31 1013.95 1013.60 1013.25 1012.91 1012.58 1012.27 1011.95 1011.62 1011.27 1010.90 1010.50 1010.08 1009.63 1009.17 1008.70 1008.23 1007.76 1007.30 1006.84 1006.37
1012.10 1012.49 1012.86 1013.20 1013.52 1013.81 1014.08 1014.32 1014.56 1014.79 1015.00 1015.20 1015.38 1015.53 1015.63 1015.69 1015.68 1015.60 1015.46 1015.26 1014.99 1014.68 1014.34 1013.97 1013.60 1013.23 1012.86 1012.50 1012.15 1011.80 1011.45 1011.09 1010.72 1010.32 1009.91 1009.48 1009.03 1008.58 1008.13 1007.69 1007.25 1006.82 1006.39 1005.95
1012.65 1013.04 1013.41 1013.76 1014.08 1014.37 1014.63 1014.87 1015.10 1015.30 1015.47 1015.62 1015.74 1015.81 1015.84 1015.81 1015.72 1015.57 1015.35 1015.08 1014.76 1014.40 1014.02 1013.62 1013.21 1012.81 1012.41 1012.02 1011.64 1011.25 1010.87 1010.48 1010.08 1009.66 1009.24 1008.81 1008.37 1007.93 1007.51 1007.09 1006.68 1006.28 1005.88 1005.47
Thickness
5603 5609 5609 5612 5611 5606 5607 5608 5604 5611 5613 5629 5632 5634 5634 5632 5627 5618 5610 5602 5593 5584 5575 5569 5563 5557 5551 5544 5538 5531 5524 5517 5510 5503 5497 5491 5484 5478 5470 5461 5452 5440 5430 5420
5598 5605 5610 5612 5611 5607 5610 5610 5611 5617 5618 5627 5629 5628 5627 5625 5621 5614 5605 5596 5586 5577 5568 5560 5553 5547 5539 5531 5525 5517 5509 5502 5496 5489 5482 5474 5467 5459 5450 5440 5428 5416 5405 5396
5590 5599 5608 5605 5610 5608 5611 5614 5614 5612 5619 5622 5621 5621 5620 5618 5615 5609 5601 5589 5579 5568 5559 5550 5542 5534 5525 5518 5510 5503 5496 5489 5482 5473 5464 5456 5447 5438 5427 5416 5405 5394 5384 5374
5583 5593 5589 5613 5619 5616 5612 5614 5618 5619 5617 5616 5614 5611 5607 5603 5601 5599 5591 5579 5567 5557 5547 5538 5529 5520 5512 5504 5496 5489 5481 5472 5464 5456 5447 5437 5425 5414 5403 5393 5383 5375 5367 5357
5581 5587 5597 5610 5612 5611 5609 5606 5611 5609 5607 5605 5603 5602 5597 5594 5588 5585 5577 5566 5555 5545 5535 5524 5515 5506 5498 5490 5481 5472 5463 5455 5447 5439 5429 5416 5404 5392 5383 5374 5367 5359 5351 5340
5581 5586 5588 5612 5617 5616 5610 5597 5603 5603 5600 5598 5595 5588 5586 5583 5572 5565 5559 5552 5541 5530 5520 5510 5501 5493 5485 5475 5465 5456 5448 5439 5430 5420 5408 5395 5383 5374 5365 5357 5351 5344 5337 5324
5582 5585 5594 5608 5611 5611 5598 5602 5596 5594 5594 5591 5584 5580 5575 5564 5558 5552 5544 5535 5526 5516 5507 5497 5489 5480 5471 5461 5452 5442 5433 5423 5412 5400 5387 5376 5367 5358 5350 5344 5337 5329 5323 5314
5574 5578 5588 5602 5601 5598 5595 5588 5587 5585 5584 5581 5578 5574 5561 5553 5546 5537 5528 5520 5512 5502 5493 5484 5475 5465 5455 5446 5437 5427 5416 5405 5393 5381 5370 5362 5353 5345 5336 5327 5320 5313 5308 5302
5583 5586 5589 5593 5594 5590 5585 5581 5579 5576 5577 5577 5573 5565 5555 5544 5533 5525 5515 5507 5498 5488 5478 5467 5457 5448 5439 5430 5421 5410 5398 5387 5376 5367 5356 5346 5338 5331 5324 5314 5305 5298 5291 5287
5575 5580 5582 5580 5580 5580 5580 5578 5574 5572 5569 5566 5562 5556 5546 5532 5521 5511 5501 5491 5482 5472 5461 5451 5442 5433 5425 5416 5406 5394 5382 5371 5362 5354 5346 5336 5326 5317 5309 5301 5293 5286 5279 5275
5572 5574 5573 5575 5575 5573 5569 5564 5560 5557 5553 5550 5546 5539 5529 5515 5506 5495 5486 5476 5466 5457 5447 5438 5428 5419 5410 5400 5389 5378 5367 5358 5350 5340 5332 5326 5318 5307 5299 5292 5281 5275 5268 5259
5569 5568 5563 5563 5566 5563 5557 5550 5543 5540 5535 5528 5524 5518 5510 5500 5491 5482 5472 5461 5451 5442 5433 5423 5412 5402 5393 5384 5373 5363 5356 5347 5336 5328 5320 5314 5308 5304 5297 5287 5281 5269 5257 5248
5562 5559 5552 5550 5545 5543 5535 5526 5520 5518 5514 5508 5504 5499 5493 5484 5475 5466 5456 5446 5436 5426 5417 5406 5396 5386 5377 5369 5359 5349 5339 5332 5324 5316 5308 5302 5296 5293 5292 5288 5278 5265 5252 5243
5548 5544 5537 5534 5527 5519 5515 5510 5506 5501 5497 5493 5488 5483 5476 5467 5457 5448 5439 5430 5419 5409 5400 5389 5379 5370 5363 5354 5344 5334 5324 5317 5311 5303 5296 5291 5286 5280 5275 5271 5268 5260 5247 5237
5528 5531 5524 5515 5506 5503 5499 5495 5491 5487 5484 5480 5474 5467 5460 5451 5442 5432 5423 5413 5403 5393 5383 5373 5363 5355 5348 5339 5329 5319 5311 5304 5298 5293 5287 5282 5275 5269 5263 5257 5252 5246 5239 5233
5508 5505 5502 5499 5495 5490 5485 5482 5479 5475 5471 5466 5458 5450 5443 5435 5426 5416 5407 5397 5387 5378 5369 5359 5351 5343 5334 5325 5315 5307 5298 5293 5288 5284 5278 5272 5265 5258 5252 5246 5240 5233 5228 5223
5505 5501 5497 5494 5489 5484 5478 5472 5467 5463 5457 5450 5442 5436 5428 5419 5410 5401 5392 5382 5371 5362 5354 5347 5339 5330 5319 5310 5301 5294 5288 5282 5278 5272 5266 5260 5254 5247 5241 5236 5229 5223 5218 5214
5504 5499 5495 5492 5480 5474 5468 5462 5456 5450 5444 5438 5432 5423 5413 5405 5396 5388 5377 5366 5356 5348 5341 5333 5323 5313 5304 5295 5289 5283 5277 5272 5267 5262 5256 5251 5244 5239 5232 5225 5219 5214 5211 5207
5489 5483 5477 5473 5465 5458 5453 5448 5444 5439 5433 5426 5418 5408 5400 5391 5383 5372 5362 5352 5343 5336 5328 5317 5308 5298 5290 5283 5278 5273 5267 5262 5257 5252 5246 5241 5235 5226 5219 5214 5208 5204 5201 5200
5472 5468 5463 5459 5453 5446 5441 5436 5431 5425 5418 5411 5403 5393 5384 5376 5367 5358 5348 5337 5327 5321 5312 5301 5293 5286 5279 5273 5268 5263 5257 5252 5247 5242 5236 5230 5223 5215 5208 5202 5198 5195 5193 5192
5461 5456 5451 5445 5439 5434 5429 5424 5417 5411 5404 5396 5388 5380 5371 5362 5352 5342 5331 5321 5313 5305 5296 5288 5280 5273 5268 5264 5260 5254 5247 5241 5236 5229 5223 5215 5208 5202 5197 5192 5189 5187 5186 5186
5449 5443 5439 5432 5425 5420 5415 5410 5404 5398 5390 5381 5374 5366 5356 5346 5336 5325 5315 5305 5298 5290 5283 5275 5267 5262 5258 5256 5250 5243 5236 5230 5223 5216 5209 5201 5193 5188 5185 5183 5181 5180 5180 5179
5434 5429 5424 5419 5413 5408 5403 5397 5390 5383 5376 5368 5360 5351 5341 5330 5319 5309 5300 5290 5281 5275 5270 5263 5257 5254 5250 5245 5237 5230 5224 5217 5210 5203 5195 5188 5182 5178 5178 5177 5176 5175 5175 5176
5419 5415 5410 5405 5399 5393 5387 5382 5374 5366 5358 5351 5343 5334 5323 5312 5302 5291 5282 5275 5268 5264 5258 5252 5248 5244 5240 5232 5224 5217 5211 5204 5197 5189 5183 5179 5176 5175 5173 5172 5171 5171 5172 5175
5406 5400 5395 5390 5385 5378 5372 5364 5355 5347 5339 5330 5322 5312 5302 5293 5283 5273 5265 5258 5255 5251 5246 5241 5236 5232 5225 5217 5211 5204 5197 5190 5183 5179 5177 5174 5171 5169 5168 5167 5168 5169 5171 5175
5389 5384 5378 5372 5366 5360 5353 5346 5338 5328 5320 5311 5301 5291 5282 5273 5265 5259 5253 5247 5242 5239 5234 5228 5223 5217 5211 5204 5197 5190 5184 5179 5174 5170 5168 5167 5166 5165 5164 5164 5164 5167 5171 5176
5369 5363 5357 5352 5346 5340 5333 5326 5317 5307 5298 5289 5280 5271 5263 5256 5251 5246 5241 5236 5231 5227 5222 5216 5210 5204 5197 5191 5185 5180 5175 5171 5167 5165 5163 5162 5161 5160 5160 5160 5162 5166 5171 5178